Pagina principale
METAR-TAF:

METAR-TAF

Aeroporti :

Monte Terminillo, Italia

latitudine: 42-28N, longitudine: 012-59E, altezza: 1874 m

Osservazione

Il bollettino è stato emesso 47 minuti fa, alle 14:55 UTC
Vento 9 kt da direzioni variabili con raffiche fino a 20 kt
Temperature 1°C
Umidità 100%
Pressione 1008 hPa

METAR: LIRK 091455Z AUTO VRB09G20KT //// 01/01 Q1008

Ora: 16:42 (15:42 UTC)


TAF: mancante

Osservazioni e previsioni meteorologiche di più di 4000 aeroporti (messaggi METAR e TAF).

Le stazioni disponibili sono rappresentate dai dischi gialli e rossi sulla carta.

Puntare il mouse per vedere il nome della stazione.

Clicca sopra per visualizzare le osservazioni e previsioni meteorologiche.

Per cambiare la mappa : fare clic sui pulsanti verdi con una croce nera per ingrandire, il pulsante verde con un trattino per diminuire, o sulla freccia verde per le mappe adiacenti.


METAR-TAF: